Blackpool, United Kingdom

5:24 PM BST on May 22, 2017 (GMT +0100)
Blackpool

Weather History for EGNH - December, 2012

Change the Weather History Date:

Monday, December 10, 2012

  Actual Average Record
Temperature  
Mean Temperature 38 °F -  
Max Temperature 41 °F 43 °F 53 °F (1997)
Min Temperature 33 °F 37 °F 28 °F (2001)
Degree Days  
Heating Degree Days 26    
Moisture  
Dew Point 32 °F    
Average Humidity 75    
Maximum Humidity 83    
Minimum Humidity 63    
Precipitation  
Precipitation 0.00 in - - ()
Sea Level Pressure  
Sea Level Pressure 30.32 in    
Wind  
Wind Speed 8 mph ()    
Max Wind Speed 13 mph    
Max Gust Speed -    
Visibility 6.2 miles    
Events      
Averages and records for this station are not official NWS values.
T = Trace of Precipitation, MM = Missing Value Source: Averaged Metar Reports

Daily Weather History Graph

Daily Weather History Graph

Search for Another Location

Airport or City:

Trip Planner

Search our weather history database for the weather conditions in past years. The results will help you decide how hot, cold, wet, or windy it might be!

Date:

Astronomy

Dec. 10, 2012 Rise Set
Actual Time 8:18 AM GMT 3:51 PM GMT
Civil Twilight 7:35 AM GMT 4:34 PM GMT
Nautical Twilight 6:50 AM GMT 5:19 PM GMT
Astronomical Twilight 6:07 AM GMT 6:02 PM GMT
Moon 4:24 AM GMT (12/10) 1:47 PM GMT (12/10)
Length of Visible Light 8h 58m
Length of Day
7h 32m
Waning Crescent, 12% of the Moon is Illuminated
Dec 10
Waning Crescent
Dec 13
New
Dec 20
First Quarter
Dec 28
Full
Jan 5
Last Quarter

Hourly Weather History & Observations

Time (GMT) Temp. Windchill Dew Point Humidity Pressure Visibility Wind Dir Wind Speed Gust Speed Precip Events Conditions
2:50 AM 41 °F - 33 °F 63%  in - NNW 11.5 mph - -  
5:50 AM 38 °F - 30 °F 63%  in - NNE 9.2 mph - -  
5:50 AM 39.2 °F 33.6 °F 30.2 °F 70% 30.21 in - North 8.1 mph - N/A   Clear
6:50 AM 39.2 °F 33.0 °F 30.2 °F 70% 30.21 in - North 9.2 mph - N/A   Clear
7:20 AM 39.2 °F 31.6 °F 30.2 °F 70% 30.24 in 6.2 mi North 12.7 mph - N/A   Partly Cloudy
7:50 AM 39.2 °F 32.0 °F 30.2 °F 70% 30.24 in 6.2 mi North 11.5 mph - N/A   Partly Cloudy
8:20 AM 39.2 °F 32.5 °F 30.2 °F 70% 30.24 in 6.2 mi North 10.4 mph - N/A   Partly Cloudy
8:50 AM 37 °F - 30 °F 68%  in - North 5.8 mph - -  
9:20 AM 39.2 °F 35.0 °F 32.0 °F 75% 30.27 in 6.2 mi NE 5.8 mph - N/A   Partly Cloudy
9:50 AM 39.2 °F 32.5 °F 32.0 °F 75% 30.27 in 6.2 mi NNE 10.4 mph - N/A   Partly Cloudy
10:20 AM 41.0 °F 36.4 °F 32.0 °F 70% 30.30 in 6.2 mi NE 6.9 mph - N/A   Partly Cloudy
10:50 AM 41.0 °F 37.1 °F 33.8 °F 76% 30.30 in 6.2 mi NE 5.8 mph - N/A   Partly Cloudy
11:20 AM 41.0 °F 35.2 °F 33.8 °F 76% 30.30 in 6.2 mi NNE 9.2 mph - N/A   Partly Cloudy
11:50 AM 41 °F - 33 °F 63%  in - NNE 12.7 mph - -  
11:50 AM 41.0 °F 34.7 °F 32.0 °F 70% 30.30 in 6.2 mi NE 10.4 mph - N/A   Partly Cloudy
12:20 PM 41.0 °F 34.7 °F 33.8 °F 76% 30.30 in 6.2 mi NNE 10.4 mph - N/A   Partly Cloudy
12:50 PM 41.0 °F 35.2 °F 33.8 °F 76% 30.30 in 6.2 mi NE 9.2 mph - N/A   Partly Cloudy
1:20 PM 41.0 °F 35.8 °F 33.8 °F 76% 30.33 in 6.2 mi NE 8.1 mph - N/A   Partly Cloudy
1:50 PM 42.8 °F 41.1 °F 33.8 °F 70% 30.33 in 6.2 mi Variable 3.5 mph - N/A   Partly Cloudy
2:20 PM 42.8 °F 38.0 °F 33.8 °F 70% 30.33 in 6.2 mi North 8.1 mph - N/A   Partly Cloudy
2:50 PM 41.0 °F 35.2 °F 33.8 °F 76% 30.33 in 6.2 mi North 9.2 mph - N/A   Partly Cloudy
3:20 PM 41.0 °F 36.4 °F 33.8 °F 76% 30.36 in 6.2 mi North 6.9 mph - N/A   Partly Cloudy
3:50 PM 41.0 °F 34.3 °F 33.8 °F 76% 30.36 in 6.2 mi NNE 11.5 mph - N/A   Partly Cloudy
4:20 PM 39.2 °F 33.0 °F 33.8 °F 81% 30.36 in - NNE 9.2 mph - N/A   Clear
4:50 PM 39.2 °F 35.9 °F 33.8 °F 81% 30.36 in - North 4.6 mph - N/A   Clear
5:20 PM 37.4 °F - 32.0 °F 81% 30.39 in - Calm Calm - N/A   Clear
5:50 PM 37 °F - 31 °F 72%  in - NE 4.6 mph - -  
5:50 PM 37.4 °F 34.9 °F 32.0 °F 81% 30.39 in - NE 3.5 mph - N/A   Clear
6:20 PM 37.4 °F 32.1 °F 32.0 °F 81% 30.39 in - NE 6.9 mph - N/A   Clear
6:50 PM 37.4 °F 33.8 °F 32.0 °F 81% 30.39 in - North 4.6 mph - N/A   Clear
7:20 PM 37.4 °F 34.9 °F 32.0 °F 81% 30.39 in - NNE 3.5 mph - N/A   Clear
7:50 PM 37.4 °F - 32.0 °F 81% 30.39 in - Calm Calm - N/A   Clear
8:20 PM 37.4 °F 32.1 °F 32.0 °F 81% 30.42 in - NNE 6.9 mph - N/A   Clear
8:50 PM 36 °F - 31 °F 76%  in - North 5.8 mph - -  
8:50 PM 37.4 °F 32.1 °F 32.0 °F 81% 30.42 in - North 6.9 mph - N/A   Clear
11:50 PM 33 °F - 30 °F 83%  in - NNE 6.9 mph - -